CW0069 Weather Reports


Display with metric or nautical units.
time (UTC)temp
F
wind
direction
speed
MPH
gust
MPH
rain 1hr
in
rain 24hr
in
rain mn
in
humidity
%
barometer
mb
20260507022905 59 26 4.0 10.0 0.00 0.13 0.13 63 1014.9
20260507022405 59 47 3.0 9.0 0.00 0.13 0.13 63 1014.7
20260507020404 59 4 6.0 13.0 0.00 0.13 0.13 63 1014.5
20260507015905 58 12 4.0 12.0 0.00 0.13 0.13 63 1014.3
20260507014904 58 12 5.0 12.0 0.00 0.13 0.13 63 1014.0
20260507014405 58 354 6.0 12.0 0.00 0.13 0.13 63 1014.0
20260507013404 58 356 6.0 12.0 0.00 0.13 0.13 63 1013.7
20260507012904 58 357 5.0 12.0 0.00 0.13 0.13 63 1013.7
20260507012404 58 16 5.0 9.0 0.00 0.13 0.13 63 1013.6
20260507011905 58 339 6.0 12.0 0.00 0.13 0.13 63 1013.5
20260507011405 58 16 3.0 10.0 0.00 0.13 0.13 63 1013.4
20260507010904 58 339 6.0 12.0 0.00 0.13 0.13 63 1013.3
20260507010405 58 358 5.0 12.0 0.00 0.13 0.13 63 1013.3
20260507005905 58 16 5.0 10.0 0.00 0.13 0.13 63 1013.3
20260507004905 58 352 4.0 9.0 0.00 0.13 0.13 63 1013.3
20260507004405 58 50 4.0 8.0 0.00 0.13 0.13 63 1013.3
20260507003904 58 349 6.0 10.0 0.00 0.13 0.13 62 1013.2
20260507003404 58 16 5.0 9.0 0.00 0.13 0.13 63 1013.1
20260507002904 58 6 5.0 13.0 0.00 0.13 0.13 62 1012.9
20260507002405 58 357 5.0 12.0 0.00 0.13 0.13 62 1012.9
20260507001904 58 39 6.0 12.0 0.00 0.13 0.13 62 1012.8
20260507001404 58 36 6.0 12.0 0.00 0.13 0.13 62 1012.9
20260507000904 58 357 7.0 13.0 0.00 0.13 0.13 62 1012.9
20260507000405 58 1 6.0 12.0 0.00 0.13 0.13 62 1012.8
20260506235905 58 16 8.0 15.0 0.00 0.13 0.13 62 1012.6
20260506234905 58 339 7.0 12.0 0.00 0.13 0.13 62 1012.7
20260506234405 58 358 8.0 13.0 0.00 0.13 0.13 62 1012.7
20260506233905 58 25 3.0 12.0 0.00 0.13 0.13 62 1012.8
20260506233404 58 338 3.0 10.0 0.00 0.13 0.13 63 1012.7
20260506232906 58 353 6.0 16.0 0.00 0.13 0.13 63 1012.7
20260506231905 58 22 5.0 14.0 0.00 0.13 0.13 63 1012.6
20260506231405 58 357 5.0 12.0 0.00 0.13 0.13 63 1012.4
20260506230919 58 359 7.0 12.0 0.00 0.13 0.13 63 1012.3
20260506225404 58 344 8.0 12.0 0.00 0.13 0.13 63 1012.5
20260506224405 58 339 7.0 12.0 0.00 0.13 0.13 63 1012.4
20260506223905 58 340 6.0 13.0 0.00 0.13 0.13 63 1012.2
20260506222905 59 332 7.0 12.0 0.00 0.13 0.13 63 1012.1
20260506222404 59 8 6.0 12.0 0.00 0.13 0.13 64 1011.9
20260506221405 58 23 6.0 14.0 0.05 0.13 0.13 64 1011.9
20260506220904 58 343 5.0 12.0 0.08 0.13 0.13 64 1011.8
20260506220405 58 345 7.0 12.0 0.12 0.13 0.13 64 1011.7
20260506215904 58 0 7.0 12.0 0.13 0.13 0.13 64 1011.5
20260506215405 59 333 6.0 14.0 0.13 0.13 0.13 64 1011.5
20260506214405 59 347 6.0 10.0 0.13 0.13 0.13 64 1011.5
20260506213904 59 346 6.0 10.0 0.13 0.13 0.13 64 1011.7
20260506212905 59 352 5.0 10.0 0.13 0.13 0.13 64 1011.7
20260506211906 59 13 2.0 7.0 0.12 0.12 0.12 62 1011.7
20260506211405 59 332 3.0 6.0 0.08 0.08 0.08 62 1011.9
20260506210904 59 326 5.0 9.0 0.05 0.05 0.05 61 1011.8
20260506210405 59 321 3.0 7.0 0.01 0.01 0.01 61 1011.9
20260506205404 59 308 3.0 6.0 0.00 0.00 0.00 61 1012.2
20260506203904 60 335 3.0 12.0 0.00 0.00 0.00 59 1012.0
20260506203405 60 319 4.0 10.0 0.00 0.00 0.00 59 1012.1
20260506202904 60 329 6.0 12.0 0.00 0.00 0.00 58 1012.1
20260506201905 60 351 7.0 13.0 0.00 0.00 0.00 59 1012.3
20260506201404 59 335 9.0 13.0 0.00 0.00 0.00 60 1012.3
20260506200905 59 345 9.0 13.0 0.00 0.00 0.00 60 1012.3
20260506200405 59 345 7.0 12.0 0.00 0.00 0.00 60 1012.6
20260506195905 58 356 6.0 12.0 0.00 0.00 0.00 59 1012.7
20260506195404 58 335 7.0 12.0 0.00 0.00 0.00 59 1012.7
20260506194904 58 2 4.0 8.0 0.00 0.00 0.00 59 1013.2
20260506194405 58 301 7.0 12.0 0.00 0.00 0.00 60 1012.9
20260506192904 58 338 6.0 14.0 0.00 0.00 0.00 59 1011.9
20260506191904 58 320 6.0 12.0 0.00 0.00 0.00 59 1013.0
20260506191404 58 316 3.0 10.0 0.00 0.00 0.00 59 1013.0
20260506190904 58 299 5.0 10.0 0.00 0.00 0.00 59 1012.7
20260506190404 58 324 6.0 12.0 0.00 0.00 0.00 59 1012.4
20260506185904 58 314 5.0 12.0 0.00 0.00 0.00 59 1012.1
20260506185405 58 327 7.0 12.0 0.00 0.00 0.00 59 1011.9
20260506184905 58 344 4.0 10.0 0.00 0.00 0.00 59 1012.0
20260506184404 58 20 3.0 8.0 0.00 0.00 0.00 58 1012.5
20260506183905 58 51 4.0 9.0 0.00 0.00 0.00 59 1012.4
20260506183404 58 11 4.0 9.0 0.00 0.00 0.00 58 1012.5
20260506182905 58 3 3.0 6.0 0.00 0.00 0.00 59 1012.3
20260506180405 58 347 10.0 18.0 0.00 0.00 0.00 59 1010.6
20260506175905 58 344 12.0 18.0 0.00 0.00 0.00 58 1010.7
20260506175405 58 343 13.0 21.0 0.00 0.00 0.00 59 1010.7
20260506174904 58 346 13.0 20.0 0.00 0.00 0.00 58 1010.6
20260506174404 58 340 12.0 20.0 0.00 0.00 0.00 59 1011.1
20260506173905 58 343 9.0 17.0 0.00 0.00 0.00 60 1011.3
20260506173404 58 343 10.0 17.0 0.00 0.00 0.00 60 1011.4
20260506172904 57 350 6.0 12.0 0.00 0.00 0.00 59 1012.2
20260506172404 57 11 6.0 10.0 0.00 0.00 0.00 59 1012.7
20260506171905 57 335 7.0 12.0 0.00 0.00 0.00 59 1013.1
20260506171404 57 22 6.0 12.0 0.00 0.00 0.00 59 1013.3
20260506170905 58 329 5.0 10.0 0.00 0.00 0.00 58 1013.2
20260506165905 58 312 7.0 16.0 0.00 0.00 0.00 58 1012.0
20260506164905 58 31 7.0 15.0 0.00 0.00 0.00 59 1011.6
20260506164405 58 7 6.0 12.0 0.00 0.00 0.00 60 1011.9
20260506163905 57 352 6.0 12.0 0.00 0.00 0.00 60 1012.6
20260506163404 57 52 2.0 12.0 0.00 0.00 0.00 61 1012.5
20260506162904 57 343 8.0 13.0 0.00 0.00 0.00 61 1012.4
20260506162404 57 37 5.0 12.0 0.00 0.00 0.00 61 1012.4
20260506161904 56 358 4.0 14.0 0.00 0.00 0.00 62 1012.6
20260506161404 56 353 7.0 13.0 0.00 0.00 0.00 62 1012.6
20260506160905 56 341 8.0 13.0 0.00 0.00 0.00 62 1012.6
20260506160404 56 11 6.0 12.0 0.00 0.00 0.00 62 1012.6
20260506155904 56 3 5.0 10.0 0.00 0.00 0.00 62 1012.7
20260506155405 55 0 4.0 8.0 0.00 0.00 0.00 62 1012.7
20260506154904 55 344 6.0 9.0 0.00 0.00 0.00 61 1013.3
20260506154404 55 355 6.0 12.0 0.00 0.00 0.00 61 1013.4
20260506153905 55 337 8.0 12.0 0.00 0.00 0.00 61 1013.5
20260506153405 55 340 7.0 14.0 0.00 0.00 0.00 61 1013.1
20260506152904 55 313 6.0 12.0 0.00 0.00 0.00 60 1013.9
20260506152404 55 304 5.0 12.0 0.00 0.00 0.00 60 1014.0
20260506151405 55 295 6.0 12.0 0.00 0.00 0.00 61 1013.3
20260506150905 55 312 3.0 10.0 0.00 0.00 0.00 61 1013.0
20260506150404 55 328 5.0 10.0 0.00 0.00 0.00 61 1012.6
20260506145904 55 350 6.0 12.0 0.00 0.00 0.00 61 1012.5
20260506145405 55 346 6.0 12.0 0.00 0.00 0.00 61 1012.8
20260506144405 55 340 7.0 16.0 0.00 0.00 0.00 61 1012.2
20260506143904 55 347 11.0 16.0 0.00 0.00 0.00 60 1012.2
20260506143404 55 332 6.0 16.0 0.00 0.00 0.00 60 1012.7
20260506142905 55 331 10.0 14.0 0.00 0.00 0.00 60 1012.2
20260506142405 55 325 6.0 12.0 0.00 0.00 0.00 60 1012.4
20260506141405 55 347 7.0 14.0 0.00 0.00 0.00 60 1012.1
20260506140905 55 330 7.0 14.0 0.00 0.00 0.00 60 1011.9
20260506140404 55 337 6.0 13.0 0.00 0.00 0.00 60 1011.7
20260506135905 55 330 8.0 14.0 0.00 0.00 0.00 60 1011.6
20260506134404 55 331 6.0 14.0 0.00 0.00 0.00 60 1011.7
20260506133404 55 346 7.0 14.0 0.00 0.00 0.00 60 1011.4
20260506132905 55 342 8.0 13.0 0.00 0.00 0.00 60 1011.3
20260506132405 55 351 6.0 12.0 0.00 0.00 0.00 60 1011.2
20260506131904 55 339 9.0 15.0 0.00 0.00 0.00 60 1011.1
20260506131404 55 350 8.0 15.0 0.00 0.00 0.00 60 1011.2
20260506130404 55 330 9.0 16.0 0.00 0.00 0.00 60 1011.4
20260506125905 55 347 9.0 16.0 0.00 0.00 0.00 60 1011.3
20260506125404 55 341 10.0 18.0 0.00 0.00 0.00 60 1011.2
20260506124904 55 321 8.0 14.0 0.00 0.00 0.00 60 1011.0
20260506123905 55 328 8.0 14.0 0.00 0.00 0.00 60 1010.8
20260506123404 55 334 8.0 14.0 0.00 0.00 0.00 59 1010.7
20260506122904 55 337 8.0 16.0 0.00 0.00 0.00 59 1010.5
20260506122405 56 335 6.0 17.0 0.00 0.00 0.00 59 1010.6
20260506121904 56 346 9.0 15.0 0.00 0.00 0.00 59 1010.6
20260506121404 56 336 6.0 12.0 0.00 0.00 0.00 58 1010.8
20260506120904 56 346 8.0 13.0 0.00 0.00 0.00 59 1010.6
20260506120404 56 322 8.0 17.0 0.00 0.00 0.00 58 1010.6
20260506115904 56 327 8.0 15.0 0.00 0.00 0.00 58 1010.5
20260506115404 56 325 9.0 15.0 0.00 0.00 0.00 58 1010.3
20260506114404 56 344 8.0 15.0 0.00 0.00 0.00 57 1010.1
20260506113904 57 345 7.0 14.0 0.00 0.00 0.00 58 1009.8
20260506113404 57 342 6.0 16.0 0.00 0.00 0.00 58 1009.8
20260506112904 57 336 9.0 17.0 0.00 0.00 0.00 58 1009.9
20260506112404 57 325 7.0 16.0 0.00 0.00 0.00 58 1009.9
20260506111904 57 322 5.0 12.0 0.00 0.00 0.00 57 1009.5
20260506111404 57 331 8.0 15.0 0.00 0.00 0.00 57 1009.6
20260506110904 57 325 7.0 14.0 0.00 0.00 0.00 56 1009.6
20260506110404 58 337 10.0 15.0 0.00 0.00 0.00 56 1009.3
20260506105904 58 322 6.0 12.0 0.00 0.00 0.00 56 1009.3
20260506104904 58 343 5.0 12.0 0.00 0.00 0.00 56 1009.0
20260506104404 58 344 7.0 12.0 0.00 0.00 0.00 56 1009.0
20260506103404 58 329 9.0 16.0 0.00 0.00 0.00 56 1008.7
20260506102904 58 331 5.0 13.0 0.00 0.00 0.00 56 1008.7
20260506102404 58 334 5.0 12.0 0.00 0.00 0.00 56 1008.5
20260506101904 58 315 4.0 12.0 0.00 0.00 0.00 56 1008.4
20260506101404 58 319 6.0 13.0 0.00 0.00 0.00 56 1008.3
20260506100905 58 339 6.0 12.0 0.00 0.00 0.00 56 1008.3
20260506100404 58 335 7.0 12.0 0.00 0.00 0.00 57 1008.2
20260506095904 58 339 6.0 12.0 0.00 0.00 0.00 57 1008.3
20260506094904 58 9 5.0 12.0 0.00 0.00 0.00 57 1008.2
20260506094404 58 320 3.0 9.0 0.00 0.00 0.00 57 1008.2
20260506093905 58 354 5.0 9.0 0.00 0.00 0.00 57 1008.2
20260506093404 58 337 6.0 13.0 0.00 0.00 0.00 57 1008.2
20260506092904 58 341 6.0 12.0 0.00 0.00 0.00 56 1008.2
20260506092404 58 327 6.0 12.0 0.00 0.00 0.00 56 1008.1
20260506091904 58 343 5.0 9.0 0.00 0.00 0.00 57 1008.1
20260506090904 58 336 3.0 8.0 0.00 0.00 0.00 57 1008.0
20260506090404 58 359 5.0 8.0 0.00 0.00 0.00 57 1007.9
20260506085904 58 354 4.0 9.0 0.00 0.00 0.00 57 1007.9
20260506085404 59 346 6.0 10.0 0.00 0.00 0.00 57 1007.9
20260506084904 59 2 3.0 6.0 0.00 0.00 0.00 57 1007.8
20260506084404 59 347 5.0 9.0 0.00 0.00 0.00 57 1007.7
20260506083904 59 35 3.0 9.0 0.00 0.00 0.00 57 1007.5
20260506082904 59 47 3.0 8.0 0.00 0.00 0.00 57 1007.4
20260506082404 59 20 3.0 10.0 0.00 0.00 0.00 57 1007.4
20260506081905 59 346 4.0 10.0 0.00 0.00 0.00 57 1007.3
20260506081404 59 342 5.0 10.0 0.00 0.00 0.00 57 1007.5
20260506080904 59 349 5.0 10.0 0.00 0.00 0.00 57 1007.4
20260506080404 59 34 3.0 8.0 0.00 0.00 0.00 57 1007.3
20260506073404 60 341 7.0 14.0 0.00 0.00 0.00 57 1007.6
20260506072904 60 350 5.0 13.0 0.00 0.00 0.00 57 1007.6
20260506072404 61 346 8.0 14.0 0.00 0.00 0.00 57 1007.6
20260506071904 61 350 6.0 13.0 0.00 0.00 0.00 57 1007.7
20260506071404 62 342 5.0 10.0 0.00 0.00 0.00 59 1007.5
20260506070904 62 341 6.0 10.0 0.00 0.00 0.00 58 1007.4
20260506070405 62 350 5.0 12.0 0.00 0.00 0.00 58 1007.5
20260506062404 63 343 7.0 14.0 0.00 0.00 0.00 56 1007.4
20260506061904 64 331 6.0 13.0 0.00 0.00 0.00 57 1007.3
20260506061404 64 6 6.0 10.0 0.00 0.00 0.00 56 1007.4
20260506060904 64 354 7.0 12.0 0.00 0.00 0.00 56 1007.3
20260506060404 64 351 8.0 12.0 0.00 0.00 0.00 56 1007.3
20260506051404 67 343 7.0 13.0 0.00 0.00 0.00 56 1007.1
20260506050904 67 344 9.0 14.0 0.00 0.00 0.00 56 1006.9
20260506050404 67 346 8.0 16.0 0.00 0.00 0.00 55 1007.0
20260506044904 69 334 9.0 15.0 0.00 0.00 0.00 56 1006.8
20260506044404 69 344 6.0 13.0 0.00 0.00 0.00 56 1006.7
20260506043904 69 348 6.0 12.0 0.00 0.00 0.00 56 1006.6
20260506043404 69 350 7.0 13.0 0.00 0.00 0.00 56 1006.6
20260506042904 70 339 7.0 13.0 0.00 0.00 0.00 56 1006.5
20260506042404 70 337 8.0 15.0 0.00 0.00 0.00 55 1006.4
20260506041904 70 343 8.0 14.0 0.00 0.00 0.00 55 1006.3
20260506040904 71 322 6.0 13.0 0.00 0.00 0.00 55 1006.3
20260506040404 71 315 10.0 15.0 0.00 0.00 0.00 55 1006.3
20260506035404 71 329 5.0 12.0 0.00 0.00 0.00 55 1006.2
20260506034904 71 356 6.0 15.0 0.00 0.00 0.00 54 1006.0
20260506034404 72 347 9.0 13.0 0.00 0.00 0.00 55 1006.0
20260506033904 72 344 6.0 10.0 0.00 0.00 0.00 55 1005.7
20260506033404 72 334 5.0 10.0 0.00 0.00 0.00 54 1005.9
20260506032904 73 330 7.0 14.0 0.00 0.00 0.00 54 1005.9
20260506032404 73 310 6.0 18.0 0.00 0.00 0.00 54 1005.9
20260506031904 74 329 9.0 17.0 0.00 0.00 0.00 54 1005.7
20260506031404 74 324 7.0 16.0 0.00 0.00 0.00 54 1005.6
20260506030904 75 320 9.0 17.0 0.00 0.00 0.00 54 1005.5
20260506030404 75 313 5.0 13.0 0.00 0.00 0.00 53 1005.3
20260506025904 75 322 7.0 12.0 0.00 0.00 0.00 53 1005.0
20260506025404 75 322 6.0 13.0 0.00 0.00 0.00 53 1005.0
20260506024904 75 292 6.0 10.0 0.00 0.00 0.00 53 1005.0
20260506024405 75 297 4.0 8.0 0.00 0.00 0.00 53 1004.5
20260506023904 75 329 5.0 8.0 0.00 0.00 0.00 52 1004.3